Ketchikan, AK

9:38 AM AKDT on October 19, 2018 (GMT -0800)
Ketchikan International

Weather History for PAKT - April, 2018

Change the Weather History Date:

Saturday, April 14, 2018

  Actual Average Record
Temperature  
Mean Temperature 40 °F -  
Max Temperature 46 °F 49 °F 60 °F (1965)
Min Temperature 35 °F 36 °F 28 °F (1965)
Degree Days  
Heating Degree Days 24    
Moisture  
Dew Point 39 °F    
Average Humidity 90    
Maximum Humidity 100    
Minimum Humidity 81    
Precipitation  
Precipitation 0.14 in - - ()
Sea Level Pressure  
Sea Level Pressure 29.91 in    
Wind  
Wind Speed 5 mph (SSE)    
Max Wind Speed 17 mph    
Max Gust Speed -    
Visibility 9 miles    
Events Rain    
Averages and records for this station are not official NWS values.
T = Trace of Precipitation, MM = Missing Value Source: NWS Daily Summary

Daily Weather History Graph

Daily Weather History Graph

Search for Another Location

Airport or City:

Astronomy

Apr. 14, 2018 Rise Set
Actual Time 5:44 AM AKDT 7:50 PM AKDT
Civil Twilight 5:05 AM AKDT 8:30 PM AKDT
Nautical Twilight 4:15 AM AKDT 9:20 PM AKDT
Astronomical Twilight 3:17 AM AKDT 10:19 PM AKDT
Moon 5:52 AM AKDT (4/14) 6:12 PM AKDT (4/14)
Length of Visible Light 15h 24m
Length of Day
14h 05m
Waning Crescent, 2% of the Moon is Illuminated
Apr 14
Waning Crescent
Apr 15
New
Apr 22
First Quarter
Apr 29
Full
May 7
Last Quarter

Hourly Weather History & Observations

Time (AKDT) Temp. Windchill Dew Point Humidity Pressure Visibility Wind Dir Wind Speed Gust Speed Precip Events Conditions
12:19 AM 39.0 °F 35.7 °F 37.0 °F 93% 29.72 in 10.0 mi SE 4.6 mph - N/A   Overcast
12:53 AM 39.0 °F 35.7 °F 37.0 °F 93% 29.75 in 10.0 mi SSE 4.6 mph - N/A   Overcast
1:45 AM 39.0 °F 34.8 °F 37.9 °F 96% 29.77 in 10.0 mi South 5.8 mph - N/A   Mostly Cloudy
1:53 AM 39.0 °F 34.8 °F 37.9 °F 96% 29.78 in 10.0 mi South 5.8 mph - N/A   Mostly Cloudy
2:53 AM 39.9 °F 37.8 °F 39.0 °F 97% 29.81 in 10.0 mi South 3.5 mph - N/A   Overcast
3:33 AM 41.0 °F 39.0 °F 39.0 °F 93% 29.81 in 10.0 mi South 3.5 mph - N/A   Overcast
3:53 AM 41.0 °F 37.1 °F 39.0 °F 93% 29.82 in 10.0 mi South 5.8 mph - 0.00 in Rain Light Rain
4:25 AM 41.0 °F 39.0 °F 39.9 °F 96% 29.83 in 4.0 mi South 3.5 mph - 0.05 in Rain Light Rain
4:36 AM 41.0 °F 39.0 °F 39.0 °F 93% 29.84 in 4.0 mi South 3.5 mph - 0.08 in Rain Light Rain
4:53 AM 41.0 °F 39.0 °F 39.0 °F 93% 29.84 in 8.0 mi South 3.5 mph - 0.09 in Rain Light Rain
5:36 AM 41.0 °F 39.0 °F 39.9 °F 96% 29.85 in 4.0 mi South 3.5 mph - 0.03 in Rain Rain
5:53 AM 41.0 °F - 39.0 °F 93% 29.85 in 6.0 mi Calm Calm - 0.05 in Rain Light Rain
6:03 AM 39.2 °F - 39.2 °F 100% 29.85 in 10.0 mi Calm Calm - N/A Rain Light Rain
6:53 AM 41.0 °F 38.0 °F 39.2 °F 93% 29.87 in 10.0 mi SSE 4.6 mph - N/A Rain Light Rain
7:53 AM 42.8 °F 39.3 °F 39.2 °F 87% 29.88 in 10.0 mi SE 5.8 mph - N/A Rain Light Rain
8:53 AM 42.8 °F 41.1 °F 39.2 °F 87% 29.90 in 10.0 mi SE 3.5 mph - N/A Rain Light Rain
9:53 AM 44.6 °F 38.8 °F 41.0 °F 87% 29.92 in 10.0 mi ESE 11.5 mph - N/A   Overcast
10:53 AM 44.6 °F 38.8 °F 41.0 °F 87% 29.94 in 10.0 mi SE 11.5 mph - N/A   Overcast
11:53 AM 46.4 °F 40.7 °F 42.8 °F 87% 29.96 in 10.0 mi SE 12.7 mph - N/A   Overcast
12:53 PM 46.0 °F 39.0 °F 43.0 °F 89% 29.96 in 10.0 mi SE 17.3 mph - N/A   Mostly Cloudy
1:53 PM 42.8 °F 35.1 °F 39.2 °F 87% 29.98 in 10.0 mi SE 16.1 mph - N/A   Mostly Cloudy
2:53 PM 44.6 °F 37.8 °F 39.2 °F 81% 29.99 in 10.0 mi SE 15.0 mph - N/A   Mostly Cloudy
3:53 PM 44.6 °F 39.2 °F 39.2 °F 81% 29.99 in 10.0 mi SE 10.4 mph - N/A   Mostly Cloudy
4:53 PM 44.6 °F 39.7 °F 39.2 °F 81% 30.00 in 10.0 mi SE 9.2 mph - N/A   Scattered Clouds
5:53 PM 44.6 °F 40.7 °F 39.2 °F 81% 30.00 in 10.0 mi SSE 6.9 mph - N/A   Scattered Clouds
6:53 PM 44.6 °F 43.1 °F 39.2 °F 81% 30.01 in 10.0 mi SE 3.5 mph - N/A   Mostly Cloudy
7:53 PM 42.8 °F - 39.2 °F 87% 30.01 in 10.0 mi Calm Calm - N/A   Mostly Cloudy
8:53 PM 41.0 °F - 37.9 °F 89% 30.03 in 10.0 mi Calm Calm - N/A   Mostly Cloudy
9:53 PM 37.0 °F 34.5 °F 35.1 °F 93% 30.04 in 10.0 mi South 3.5 mph - N/A   Clear
10:49 PM 35.6 °F - 33.8 °F 93% 30.04 in 10.0 mi Calm Calm - N/A   Partly Cloudy
10:53 PM 36.0 °F - 35.1 °F 97% 30.05 in 10.0 mi Calm Calm - N/A   Partly Cloudy
11:53 PM 35.1 °F 32.2 °F 34.0 °F 96% 30.05 in 10.0 mi NW 3.5 mph - N/A   Clear